Home > Time Zones > World Clock > Weather > U.S.A. > Yuma > Past weeks

Flag for U.S.A. Weather past 2 weeks in Yuma, Arizona, U.S.A.

Now
82 °F

Clear.


Feels Like: 81 °F
Forecast: 73 / 93 °F
Wind: 5 mph from South

Location: Yuma Marine Corps Air Station

Current Time: Oct 20, 2014 at 9:51:14 PM

Latest Report: Oct 20, 2014 at 8:57 PM


Visibility: 10 mi

Pressure: 29.76 "Hg

Humidity: 35%

Dew point: 52 °F

Location of YumaLocation

Historic Weather in Yuma — Graph

°F

Yuma temperature yesterday

Maximum temperature yesterday: 93 °F (at 2:57 PM)
Minimum temperature yesterday: 70 °F (at 6:57 AM)
Average temperature yesterday: 81 °F

Past Weeks' High & Low Weather Summary

 TemperatureHumidityPressure
High97 °F (Oct 12, 3:57 PM)85% (Oct 11, 4:57 AM)30.00 "Hg (Oct 11, 4:57 AM)
Low67 °F (Oct 16, 6:57 AM)5% (Oct 13, 10:57 AM)29.70 "Hg (Oct 18, 4:57 PM)
Average81 °F44%29.83 "Hg
* Reported Oct 5 7:57 PM — Oct 20 7:57 PM, Yuma, Weather by CustomWeather, © 2014

Note: Actual official high and low records may vary slightly from our data, if they occured in-between our weather recording intervals... More about our weather records

Advertising

Yuma weather history for previous 24 hours

 ConditionsComfort  
Time TempWeatherWind HumidityBarometerVisibility
7:57 PM
Oct 20
85 °FClear.No wind31%29.75 "Hg10 mi
6:57 PM88 °FClear.3 mph25%29.75 "Hg10 mi
5:57 PM91 °FPassing clouds.No wind21%29.73 "Hg10 mi
4:57 PM93 °FPassing clouds.No wind20%29.74 "Hg10 mi
3:57 PM93 °FSunny.3 mph21%29.75 "Hg10 mi
2:57 PM92 °FPassing clouds.3 mph22%29.76 "Hg10 mi
12:57 PM91 °FSunny.5 mph25%29.80 "Hg10 mi
11:57 AM89 °FSunny.5 mph26%29.83 "Hg10 mi
10:57 AM88 °FSunny.10 mph27%29.84 "Hg10 mi
9:57 AM85 °FSunny.9 mph30%29.85 "Hg10 mi
8:57 AM82 °FSunny.7 mph35%29.85 "Hg10 mi
7:57 AM78 °FSunny.6 mph48%29.83 "Hg10 mi
6:57 AM75 °FSunny.5 mph64%29.81 "Hg10 mi
5:57 AM74 °FClear.7 mph64%29.80 "Hg10 mi
4:57 AM75 °FClear.7 mph66%29.79 "Hg10 mi
3:57 AM76 °FClear.7 mph67%29.78 "Hg10 mi
2:57 AM77 °FClear.12 mph62%29.78 "Hg10 mi
1:57 AM77 °FClear.6 mph64%29.79 "Hg10 mi
12:57 AM76 °FClear.5 mph64%29.78 "Hg10 mi
11:57 PM
Oct 19
76 °FPassing clouds.5 mph62%29.77 "Hg10 mi
10:57 PM78 °FPassing clouds.10 mph60%29.78 "Hg10 mi
9:57 PM79 °FPassing clouds.10 mph60%29.78 "Hg10 mi
Weather by CustomWeather, © 2014

See weather overviewHow to use our weather pages